Weather History for KPAH - May, 2013

Change the Weather History Date:

Thursday, May 16, 2013

  Actual Average Record
Temperature  
Mean Temperature 73 °F 67 °F  
Max Temperature 80 °F 78 °F 91 °F (2001)
Min Temperature 65 °F 56 °F 36 °F (1997)
Degree Days  
Heating Degree Days 0 2  
Month to date heating degree days 75 46  
Since 1 July heating degree days 4201 4110  
Cooling Degree Days 8 4  
Month to date cooling degree days 34 46  
Year to date cooling degree days 66 88  
Growing Degree Days 23 (Base 50)    
Moisture  
Dew Point 60 °F    
Average Humidity 69    
Maximum Humidity 87    
Minimum Humidity 50    
Precipitation  
Precipitation T in 0.16 in 3.50 in (1948)
Month to date precipitation 2.17 2.77  
Year to date precipitation 23.31 19.05  
Snow  
Snow 0.00 in 0.00 in 0.00 in (2002)
Month to date snowfall 0.0 0.0  
Since 1 July snowfall 6.8 9.1  
Snow Depth 0.00 in    
Sea Level Pressure  
Sea Level Pressure 29.94 in    
Wind  
Wind Speed 5 mph (SW)    
Max Wind Speed 16 mph    
Max Gust Speed 20 mph    
Visibility 10 miles    
Events Rain    
T = Trace of Precipitation, MM = Missing Value Source: NWS Daily Summary

Daily Weather History Graph

Daily Weather History Graph

Search for Another Location

Airport or City:

Trip Planner

Search our weather history database for the weather conditions in past years. The results will help you decide how hot, cold, wet, or windy it might be!

Date:

Astronomy

May. 16, 2013 Rise Set
Actual Time 5:45 AM CDT 7:57 PM CDT
Civil Twilight 5:16 AM CDT 8:26 PM CDT
Nautical Twilight 4:41 AM CDT 9:02 PM CDT
Astronomical Twilight 4:02 AM CDT 9:41 PM CDT
Moon 11:16 AM CDT (5/16) 12:20 AM CDT (5/16)
Length of Visible Light 15h 09m
Length of Day
14h 11m
Waxing Crescent, 36% of the Moon is Illuminated
May 16
Waxing Crescent
May 17
First Quarter
May 24
Full
May 31
Last Quarter
Jun 8
New

Hourly Weather History & Observations

Time (CDT) Temp. Heat Index Dew Point Humidity Pressure Visibility Wind Dir Wind Speed Gust Speed Precip Events Conditions
12:53 AM 69.1 °F - 55.0 °F 61% 29.92 in 10.0 mi SW 5.8 mph - N/A   Clear
1:53 AM 69.1 °F - 55.9 °F 63% 29.91 in 10.0 mi SW 4.6 mph - N/A   Clear
2:53 AM 69.1 °F - 57.0 °F 65% 29.91 in 10.0 mi SSW 3.5 mph - N/A   Clear
3:53 AM 69.1 °F - 57.0 °F 65% 29.92 in 10.0 mi SW 5.8 mph - N/A   Clear
4:53 AM 66.0 °F - 59.0 °F 78% 29.94 in 10.0 mi WSW 3.5 mph - N/A   Overcast
5:53 AM 66.9 °F - 59.0 °F 76% 29.95 in 10.0 mi South 6.9 mph - 0.00 in Rain Light Rain
6:53 AM 66.9 °F - 59.0 °F 76% 29.98 in 10.0 mi SSW 6.9 mph - 0.00 in   Mostly Cloudy
7:53 AM 68.0 °F - 61.0 °F 78% 29.98 in 10.0 mi SW 5.8 mph - N/A   Mostly Cloudy
8:53 AM 72.0 °F - 62.1 °F 71% 29.97 in 10.0 mi WSW 9.2 mph - N/A   Clear
9:53 AM 75.0 °F - 55.9 °F 51% 29.97 in 10.0 mi West 11.5 mph - N/A   Clear
10:53 AM 75.9 °F - 59.0 °F 56% 29.98 in 10.0 mi West 9.2 mph - N/A   Clear
11:53 AM 75.9 °F - 59.0 °F 56% 29.97 in 10.0 mi WSW 6.9 mph - N/A   Mostly Cloudy
12:53 PM 75.9 °F - 60.1 °F 58% 29.96 in 10.0 mi West 3.5 mph - N/A   Overcast
1:53 PM 78.1 °F - 59.0 °F 52% 29.94 in 10.0 mi Calm Calm - N/A   Clear
2:53 PM 80.1 °F 81.1 °F 61.0 °F 52% 29.93 in 10.0 mi ESE 4.6 mph - N/A   Clear
3:53 PM 79.0 °F - 62.1 °F 56% 29.91 in 10.0 mi South 5.8 mph - N/A   Scattered Clouds
4:53 PM 79.0 °F - 61.0 °F 54% 29.91 in 10.0 mi Variable 5.8 mph - N/A   Mostly Cloudy
5:53 PM 77.0 °F - 63.0 °F 62% 29.90 in 10.0 mi Calm Calm - N/A   Scattered Clouds
6:53 PM 70.0 °F - 64.9 °F 84% 29.90 in 5.0 mi SW 4.6 mph - 0.00 in Rain Light Rain
7:53 PM 68.0 °F - 66.0 °F 93% 29.91 in 9.0 mi Calm Calm - 0.00 in   Clear
8:53 PM 68.0 °F - 64.9 °F 90% 29.91 in 10.0 mi Calm Calm - N/A   Partly Cloudy
9:53 PM 68.0 °F - 62.1 °F 81% 29.92 in 10.0 mi SSE 3.5 mph - N/A   Scattered Clouds
10:53 PM 68.0 °F - 60.1 °F 76% 29.93 in 10.0 mi South 4.6 mph - N/A   Clear
11:53 PM 68.0 °F - 59.0 °F 73% 29.94 in 10.0 mi South 3.5 mph - N/A   Clear